Time,TemperatureF,DewpointF,PressureIn,WindDirection,WindDirectionDegrees,WindSpeedMPH,WindSpeedGustMPH,Humidity,HourlyPrecipIn,Conditions,Clouds,dailyrainin,SolarRadiationWatts/m^2,SoftwareType,DateUTC
2013-01-16 00:08:00,34.4,28.9,30.48,SSE,155,3.0,3.0,80,0.00,,,0.00,0,Wunderground v.1.15,2013-01-16 08:08:00,
2013-01-16 00:18:00,34.3,28.8,30.48,SSE,155,0.0,0.0,80,0.00,,,0.00,0,Wunderground v.1.15,2013-01-16 08:18:00,
2013-01-16 00:28:00,34.1,28.6,30.48,SSE,155,0.0,1.0,80,0.00,,,0.00,0,Wunderground v.1.15,2013-01-16 08:28:00,
2013-01-16 00:38:00,33.5,28.0,30.48,SSE,155,1.0,2.0,80,0.00,,,0.00,0,Wunderground v.1.15,2013-01-16 08:38:00,
2013-01-16 00:48:00,32.9,27.7,30.48,SSE,155,1.0,1.0,81,0.00,,,0.00,0,Wunderground v.1.15,2013-01-16 08:48:00,
2013-01-16 00:58:00,32.5,27.6,30.49,SSE,155,3.0,3.0,82,0.00,,,0.00,0,Wunderground v.1.15,2013-01-16 08:58:00,
2013-01-16 01:08:00,32.4,27.8,30.49,SSE,155,1.0,1.0,83,0.00,,,0.00,0,Wunderground v.1.15,2013-01-16 09:08:00,
2013-01-16 01:18:00,32.5,27.9,30.49,SSE,155,3.0,3.0,83,0.00,,,0.00,0,Wunderground v.1.15,2013-01-16 09:18:00,
2013-01-16 01:28:00,32.6,28.0,30.49,SSE,155,2.0,2.0,83,0.00,,,0.00,0,Wunderground v.1.15,2013-01-16 09:28:00,
2013-01-16 01:38:00,32.9,28.6,30.49,SSE,155,2.0,2.0,84,0.00,,,0.00,0,Wunderground v.1.15,2013-01-16 09:38:00,
2013-01-16 01:48:00,33.2,28.9,30.49,SSE,155,1.0,1.0,84,0.00,,,0.00,0,Wunderground v.1.15,2013-01-16 09:48:00,
2013-01-16 01:58:00,32.8,28.2,30.49,SSE,156,3.0,6.0,83,0.00,,,0.00,0,Wunderground v.1.15,2013-01-16 09:58:00,
2013-01-16 02:08:00,32.5,27.9,30.50,SSE,155,6.0,6.0,83,0.00,,,0.00,0,Wunderground v.1.15,2013-01-16 10:08:00,
2013-01-16 02:18:00,31.8,27.2,30.50,SSE,163,5.0,6.0,83,0.00,,,0.00,0,Wunderground v.1.15,2013-01-16 10:18:00,
2013-01-16 02:28:00,31.5,27.2,30.49,SSE,153,5.0,5.0,84,0.00,,,0.00,0,Wunderground v.1.15,2013-01-16 10:28:00,
2013-01-16 02:38:00,31.4,27.1,30.49,SSE,148,4.0,4.0,84,0.00,,,0.00,0,Wunderground v.1.15,2013-01-16 10:38:00,
2013-01-16 02:48:00,31.1,27.1,30.49,SSE,161,5.0,6.0,85,0.00,,,0.00,0,Wunderground v.1.15,2013-01-16 10:48:00,
2013-01-16 02:58:00,30.9,27.2,30.49,SSE,167,5.0,5.0,86,0.00,,,0.00,0,Wunderground v.1.15,2013-01-16 10:58:00,
2013-01-16 03:08:00,30.8,27.1,30.49,SSE,159,5.0,5.0,86,0.00,,,0.00,0,Wunderground v.1.15,2013-01-16 11:08:00,
2013-01-16 03:18:00,31.0,27.3,30.49,SSE,158,5.0,5.0,86,0.00,,,0.00,0,Wunderground v.1.15,2013-01-16 11:18:00,
2013-01-16 03:28:00,30.5,26.8,30.49,SSE,157,5.0,5.0,86,0.00,,,0.00,0,Wunderground v.1.15,2013-01-16 11:28:00,
2013-01-16 03:38:00,30.2,26.8,30.48,SSE,152,5.0,5.0,87,0.00,,,0.00,0,Wunderground v.1.15,2013-01-16 11:38:00,
2013-01-16 03:48:00,30.8,27.4,30.48,SSE,160,5.0,5.0,87,0.00,,,0.00,0,Wunderground v.1.15,2013-01-16 11:48:00,
2013-01-16 03:58:00,31.0,27.6,30.48,SSE,159,5.0,5.0,87,0.00,,,0.00,0,Wunderground v.1.15,2013-01-16 11:58:00,
2013-01-16 04:08:00,31.7,28.3,30.48,South,180,1.0,1.0,87,0.00,,,0.00,0,Wunderground v.1.15,2013-01-16 12:08:00,
2013-01-16 04:18:00,31.5,28.1,30.48,South,180,0.0,0.0,87,0.00,,,0.00,0,Wunderground v.1.15,2013-01-16 12:18:00,
2013-01-16 04:28:00,31.4,28.0,30.48,South,180,0.0,0.0,87,0.00,,,0.00,0,Wunderground v.1.15,2013-01-16 12:28:00,
2013-01-16 04:38:00,31.1,27.7,30.48,South,180,1.0,2.0,87,0.00,,,0.00,0,Wunderground v.1.15,2013-01-16 12:38:00,
2013-01-16 04:48:00,31.1,27.7,30.47,SSE,161,2.0,4.0,87,0.00,,,0.00,0,Wunderground v.1.15,2013-01-16 12:48:00,
2013-01-16 04:58:00,31.3,27.9,30.47,SSE,159,2.0,2.0,87,0.00,,,0.00,0,Wunderground v.1.15,2013-01-16 12:58:00,
2013-01-16 05:08:00,31.4,28.0,30.47,SSE,159,1.0,2.0,87,0.00,,,0.00,0,Wunderground v.1.15,2013-01-16 13:08:00,
2013-01-16 05:18:00,31.1,27.7,30.46,SSE,159,1.0,4.0,87,0.00,,,0.00,0,Wunderground v.1.15,2013-01-16 13:18:00,
2013-01-16 05:28:00,30.8,27.4,30.46,SSE,159,1.0,1.0,87,0.00,,,0.00,0,Wunderground v.1.15,2013-01-16 13:28:00,
2013-01-16 05:38:00,30.5,27.1,30.46,SSE,159,1.0,3.0,87,0.00,,,0.00,0,Wunderground v.1.15,2013-01-16 13:38:00,
2013-01-16 05:48:00,30.5,27.1,30.46,SSE,159,1.0,1.0,87,0.00,,,0.00,0,Wunderground v.1.15,2013-01-16 13:48:00,
2013-01-16 05:58:00,30.3,26.9,30.46,SSE,159,0.0,0.0,87,0.00,,,0.00,0,Wunderground v.1.15,2013-01-16 13:58:00,
2013-01-16 06:08:00,30.4,27.0,30.46,SSE,159,0.0,0.0,87,0.00,,,0.00,0,Wunderground v.1.15,2013-01-16 14:08:00,
2013-01-16 06:18:00,30.6,27.5,30.46,SSE,159,2.0,2.0,88,0.00,,,0.00,0,Wunderground v.1.15,2013-01-16 14:18:00,
2013-01-16 06:28:00,30.6,27.5,30.46,SSE,159,3.0,4.0,88,0.00,,,0.00,0,Wunderground v.1.15,2013-01-16 14:28:00,
2013-01-16 06:38:00,30.5,27.4,30.46,SSE,149,4.0,4.0,88,0.00,,,0.00,0,Wunderground v.1.15,2013-01-16 14:38:00,
2013-01-16 06:48:00,30.5,27.4,30.46,South,175,3.0,3.0,88,0.00,,,0.00,0,Wunderground v.1.15,2013-01-16 14:48:00,
2013-01-16 06:58:00,30.1,27.0,30.46,SSE,166,3.0,3.0,88,0.00,,,0.00,0,Wunderground v.1.15,2013-01-16 14:58:00,
2013-01-16 07:08:00,30.3,27.2,30.46,South,169,1.0,1.0,88,0.00,,,0.00,0,Wunderground v.1.15,2013-01-16 15:08:00,
2013-01-16 07:18:00,30.3,27.2,30.46,South,169,0.0,0.0,88,0.00,,,0.00,0,Wunderground v.1.15,2013-01-16 15:18:00,
2013-01-16 07:28:00,30.3,27.2,30.46,SSE,168,0.0,0.0,88,0.00,,,0.00,7,Wunderground v.1.15,2013-01-16 15:28:00,
2013-01-16 07:38:00,30.5,27.4,30.47,South,169,0.0,0.0,88,0.00,,,0.00,14,Wunderground v.1.15,2013-01-16 15:38:00,
2013-01-16 07:48:00,30.5,27.6,30.47,South,169,0.0,0.0,89,0.00,,,0.00,28,Wunderground v.1.15,2013-01-16 15:48:00,
2013-01-16 07:58:00,31.6,28.7,30.47,South,169,0.0,0.0,89,0.00,,,0.00,47,Wunderground v.1.15,2013-01-16 15:58:00,
2013-01-16 08:08:00,31.4,28.0,30.47,SSE,168,1.0,1.0,87,0.00,,,0.00,74,Wunderground v.1.15,2013-01-16 16:08:00,
2013-01-16 08:18:00,32.6,29.4,30.48,SSE,163,1.0,1.0,88,0.00,,,0.00,93,Wunderground v.1.15,2013-01-16 16:18:00,
2013-01-16 08:28:00,34.4,30.6,30.47,SSE,163,1.0,1.0,86,0.00,,,0.00,125,Wunderground v.1.15,2013-01-16 16:28:00,
2013-01-16 08:38:00,35.3,30.9,30.48,SSE,163,0.0,0.0,84,0.00,,,0.00,160,Wunderground v.1.15,2013-01-16 16:38:00,
2013-01-16 08:48:00,36.2,31.5,30.48,SSE,163,0.0,0.0,83,0.00,,,0.00,190,Wunderground v.1.15,2013-01-16 16:48:00,
2013-01-16 08:58:00,37.0,31.4,30.48,SSW,211,0.0,0.0,80,0.00,,,0.00,225,Wunderground v.1.15,2013-01-16 16:58:00,
2013-01-16 09:08:00,37.2,31.3,30.48,SW,221,0.0,0.0,79,0.00,,,0.00,258,Wunderground v.1.15,2013-01-16 17:08:00,
2013-01-16 09:18:00,37.7,31.8,30.48,SW,221,0.0,0.0,79,0.00,,,0.00,283,Wunderground v.1.15,2013-01-16 17:18:00,
2013-01-16 09:28:00,38.0,32.1,30.48,SW,221,0.0,0.0,79,0.00,,,0.00,308,Wunderground v.1.15,2013-01-16 17:28:00,
2013-01-16 09:38:00,39.0,33.0,30.48,SW,221,0.0,0.0,79,0.00,,,0.00,332,Wunderground v.1.15,2013-01-16 17:38:00,
2013-01-16 09:48:00,39.4,32.8,30.48,SW,221,0.0,1.0,77,0.00,,,0.00,355,Wunderground v.1.15,2013-01-16 17:48:00,
2013-01-16 09:58:00,39.6,33.3,30.48,NW,306,1.0,1.0,78,0.00,,,0.00,376,Wunderground v.1.15,2013-01-16 17:58:00,
2013-01-16 10:08:00,40.7,33.7,30.47,NW,310,0.0,1.0,76,0.00,,,0.00,397,Wunderground v.1.15,2013-01-16 18:08:00,
2013-01-16 10:18:00,41.5,33.8,30.47,NW,315,1.0,1.0,74,0.00,,,0.00,415,Wunderground v.1.15,2013-01-16 18:18:00,
2013-01-16 10:28:00,42.7,33.9,30.47,NW,309,1.0,1.0,71,0.00,,,0.00,432,Wunderground v.1.15,2013-01-16 18:28:00,
2013-01-16 10:38:00,42.8,33.7,30.46,WNW,289,1.0,1.0,70,0.00,,,0.00,450,Wunderground v.1.15,2013-01-16 18:38:00,
2013-01-16 10:48:00,44.3,34.4,30.46,WNW,303,0.0,0.0,68,0.00,,,0.00,464,Wunderground v.1.15,2013-01-16 18:48:00,
2013-01-16 10:58:00,44.8,34.1,30.45,WNW,296,1.0,2.0,66,0.00,,,0.00,476,Wunderground v.1.15,2013-01-16 18:58:00,
2013-01-16 11:08:00,45.3,35.0,30.45,NW,319,1.0,1.0,67,0.00,,,0.00,489,Wunderground v.1.15,2013-01-16 19:08:00,
2013-01-16 11:18:00,46.1,34.2,30.45,NW,304,1.0,1.0,63,0.00,,,0.00,497,Wunderground v.1.15,2013-01-16 19:18:00,
2013-01-16 11:28:00,46.4,35.3,30.44,WNW,283,1.0,2.0,65,0.00,,,0.00,508,Wunderground v.1.15,2013-01-16 19:28:00,
2013-01-16 11:38:00,47.3,35.3,30.44,NW,320,2.0,2.0,63,0.00,,,0.00,513,Wunderground v.1.15,2013-01-16 19:38:00,
2013-01-16 11:48:00,48.5,35.7,30.43,WNW,302,1.0,3.0,61,0.00,,,0.00,517,Wunderground v.1.15,2013-01-16 19:48:00,
2013-01-16 11:58:00,49.5,36.2,30.42,NNW,328,2.0,4.0,60,0.00,,,0.00,522,Wunderground v.1.15,2013-01-16 19:58:00,
2013-01-16 12:08:00,50.9,35.7,30.41,NNW,329,4.0,4.0,56,0.00,,,0.00,526,Wunderground v.1.15,2013-01-16 20:08:00,
2013-01-16 12:18:00,51.7,35.1,30.41,WNW,292,4.0,4.0,53,0.00,,,0.00,526,Wunderground v.1.15,2013-01-16 20:18:00,
2013-01-16 12:28:00,51.8,34.7,30.40,NNE,22,3.0,3.0,52,0.00,,,0.00,526,Wunderground v.1.15,2013-01-16 20:28:00,
2013-01-16 12:38:00,52.3,35.2,30.39,NW,314,4.0,6.0,52,0.00,,,0.00,522,Wunderground v.1.15,2013-01-16 20:38:00,
2013-01-16 12:48:00,52.5,34.4,30.39,NNW,330,5.0,5.0,50,0.00,,,0.00,519,Wunderground v.1.15,2013-01-16 20:48:00,
2013-01-16 12:58:00,52.6,35.0,30.38,North,349,4.0,4.0,51,0.00,,,0.00,510,Wunderground v.1.15,2013-01-16 20:58:00,
2013-01-16 13:08:00,52.7,34.6,30.38,West,278,4.0,4.0,50,0.00,,,0.00,503,Wunderground v.1.15,2013-01-16 21:08:00,
2013-01-16 13:18:00,52.5,34.4,30.38,NW,323,5.0,6.0,50,0.00,,,0.00,348,Wunderground v.1.15,2013-01-16 21:18:00,
2013-01-16 13:28:00,53.2,34.5,30.37,NNW,327,4.0,4.0,49,0.00,,,0.00,489,Wunderground v.1.15,2013-01-16 21:28:00,
2013-01-16 13:38:00,53.3,34.1,30.36,NNW,346,3.0,3.0,48,0.00,,,0.00,190,Wunderground v.1.15,2013-01-16 21:38:00,
2013-01-16 13:48:00,53.7,33.9,30.36,North,351,2.0,9.0,47,0.00,,,0.00,387,Wunderground v.1.15,2013-01-16 21:48:00,
2013-01-16 13:58:00,53.9,34.1,30.36,NNW,336,3.0,3.0,47,0.00,,,0.00,446,Wunderground v.1.15,2013-01-16 21:58:00,
2013-01-16 14:08:00,54.0,34.2,30.36,NNW,342,3.0,6.0,47,0.00,,,0.00,58,Wunderground v.1.15,2013-01-16 22:08:00,
2013-01-16 14:18:00,54.0,33.1,30.36,NNE,21,6.0,6.0,45,0.00,,,0.00,51,Wunderground v.1.15,2013-01-16 22:18:00,
2013-01-16 14:28:00,54.1,33.8,30.36,WNW,284,5.0,5.0,46,0.00,,,0.00,72,Wunderground v.1.15,2013-01-16 22:28:00,
2013-01-16 14:38:00,54.1,33.8,30.36,WNW,302,3.0,3.0,46,0.00,,,0.00,62,Wunderground v.1.15,2013-01-16 22:38:00,
2013-01-16 14:48:00,54.2,33.3,30.36,NW,316,5.0,6.0,45,0.00,,,0.00,60,Wunderground v.1.15,2013-01-16 22:48:00,
2013-01-16 14:58:00,54.2,33.9,30.35,North,360,5.0,6.0,46,0.00,,,0.00,40,Wunderground v.1.15,2013-01-16 22:58:00,
2013-01-16 15:08:00,54.2,33.9,30.35,NNW,333,5.0,5.0,46,0.00,,,0.00,95,Wunderground v.1.15,2013-01-16 23:08:00,
2013-01-16 15:18:00,54.2,33.9,30.35,NNW,327,3.0,3.0,46,0.00,,,0.00,97,Wunderground v.1.15,2013-01-16 23:18:00,
2013-01-16 15:28:00,54.3,33.9,30.35,WNW,291,3.0,3.0,46,0.00,,,0.00,35,Wunderground v.1.15,2013-01-16 23:28:00,
2013-01-16 15:38:00,54.3,33.4,30.35,North,350,4.0,4.0,45,0.00,,,0.00,32,Wunderground v.1.15,2013-01-16 23:38:00,
2013-01-16 15:48:00,54.4,33.5,30.35,WNW,292,4.0,4.0,45,0.00,,,0.00,32,Wunderground v.1.15,2013-01-16 23:48:00,
2013-01-16 15:58:00,54.4,33.5,30.35,WNW,290,2.0,2.0,45,0.00,,,0.00,30,Wunderground v.1.15,2013-01-16 23:58:00,
2013-01-16 16:08:00,54.4,32.9,30.35,NNW,339,3.0,3.0,44,0.00,,,0.00,26,Wunderground v.1.15,2013-01-17 00:08:00,
2013-01-16 16:18:00,54.2,33.3,30.35,NNW,347,1.0,2.0,45,0.00,,,0.00,25,Wunderground v.1.15,2013-01-17 00:18:00,
2013-01-16 16:28:00,54.0,33.1,30.35,NNW,330,2.0,2.0,45,0.00,,,0.00,23,Wunderground v.1.15,2013-01-17 00:28:00,
2013-01-16 16:38:00,53.8,33.5,30.35,NW,321,2.0,2.0,46,0.00,,,0.00,19,Wunderground v.1.15,2013-01-17 00:38:00,
2013-01-16 16:48:00,53.5,33.7,30.35,West,276,1.0,2.0,47,0.00,,,0.00,16,Wunderground v.1.15,2013-01-17 00:48:00,
2013-01-16 16:58:00,53.0,33.8,30.35,WNW,283,1.0,1.0,48,0.00,,,0.00,12,Wunderground v.1.15,2013-01-17 00:58:00,
2013-01-16 17:08:00,52.4,33.8,30.34,WNW,284,2.0,2.0,49,0.00,,,0.00,7,Wunderground v.1.15,2013-01-17 01:08:00,
2013-01-16 17:18:00,51.9,33.8,30.34,WNW,282,2.0,2.0,50,0.00,,,0.00,0,Wunderground v.1.15,2013-01-17 01:18:00,
2013-01-16 17:28:00,51.4,33.9,30.34,WNW,286,1.0,2.0,51,0.00,,,0.00,0,Wunderground v.1.15,2013-01-17 01:28:00,
2013-01-16 17:38:00,51.0,33.5,30.34,WNW,286,1.0,1.0,51,0.00,,,0.00,0,Wunderground v.1.15,2013-01-17 01:38:00,
2013-01-16 17:48:00,50.6,33.6,30.34,WNW,286,0.0,0.0,52,0.00,,,0.00,0,Wunderground v.1.15,2013-01-17 01:48:00,
2013-01-16 17:58:00,50.1,33.6,30.34,WNW,286,0.0,0.0,53,0.00,,,0.00,0,Wunderground v.1.15,2013-01-17 01:58:00,
2013-01-16 18:08:00,49.5,33.5,30.34,WNW,286,0.0,0.0,54,0.00,,,0.00,0,Wunderground v.1.15,2013-01-17 02:08:00,
2013-01-16 18:18:00,48.7,33.7,30.34,SSW,192,1.0,1.0,56,0.00,,,0.00,0,Wunderground v.1.15,2013-01-17 02:18:00,
2013-01-16 18:28:00,48.0,33.5,30.34,South,176,1.0,3.0,57,0.00,,,0.00,0,Wunderground v.1.15,2013-01-17 02:28:00,
2013-01-16 18:38:00,46.9,33.3,30.34,SSE,156,5.0,5.0,59,0.00,,,0.00,0,Wunderground v.1.15,2013-01-17 02:38:00,
2013-01-16 18:48:00,45.9,33.6,30.34,SSE,156,5.0,5.0,62,0.00,,,0.00,0,Wunderground v.1.15,2013-01-17 02:48:00,
2013-01-16 18:58:00,45.0,33.2,30.33,SSE,160,4.0,4.0,63,0.00,,,0.00,0,Wunderground v.1.15,2013-01-17 02:58:00,
2013-01-16 19:08:00,44.8,33.0,30.33,SSE,160,1.0,1.0,63,0.00,,,0.00,0,Wunderground v.1.15,2013-01-17 03:08:00,
2013-01-16 19:18:00,44.1,33.1,30.33,SSE,163,2.0,2.0,65,0.00,,,0.00,0,Wunderground v.1.15,2013-01-17 03:18:00,
2013-01-16 19:28:00,43.9,32.9,30.33,South,171,2.0,2.0,65,0.00,,,0.00,0,Wunderground v.1.15,2013-01-17 03:28:00,
2013-01-16 19:38:00,44.0,32.6,30.33,South,171,1.0,1.0,64,0.00,,,0.00,0,Wunderground v.1.15,2013-01-17 03:38:00,
2013-01-16 19:48:00,44.0,32.6,30.33,South,171,0.0,0.0,64,0.00,,,0.00,0,Wunderground v.1.15,2013-01-17 03:48:00,
2013-01-16 19:58:00,43.8,32.4,30.33,South,171,0.0,0.0,64,0.00,,,0.00,0,Wunderground v.1.15,2013-01-17 03:58:00,
2013-01-16 20:08:00,43.5,32.1,30.33,South,189,0.0,0.0,64,0.00,,,0.00,0,Wunderground v.1.15,2013-01-17 04:08:00,
2013-01-16 20:18:00,43.2,32.2,30.33,South,189,0.0,0.0,65,0.00,,,0.00,0,Wunderground v.1.15,2013-01-17 04:18:00,
2013-01-16 20:28:00,42.7,31.7,30.33,South,189,0.0,0.0,65,0.00,,,0.00,0,Wunderground v.1.15,2013-01-17 04:28:00,
2013-01-16 20:38:00,42.3,31.7,30.33,South,189,0.0,0.0,66,0.00,,,0.00,0,Wunderground v.1.15,2013-01-17 04:38:00,
2013-01-16 20:48:00,41.2,31.1,30.33,South,188,1.0,2.0,67,0.00,,,0.00,0,Wunderground v.1.15,2013-01-17 04:48:00,
2013-01-16 20:58:00,40.5,31.1,30.33,South,188,0.0,0.0,69,0.00,,,0.00,0,Wunderground v.1.15,2013-01-17 04:58:00,
2013-01-16 21:08:00,39.7,30.7,30.33,South,188,1.0,1.0,70,0.00,,,0.00,0,Wunderground v.1.15,2013-01-17 05:08:00,
2013-01-16 21:18:00,39.4,30.8,30.33,South,188,0.0,0.0,71,0.00,,,0.00,0,Wunderground v.1.15,2013-01-17 05:18:00,
2013-01-16 21:28:00,39.2,30.6,30.33,South,188,0.0,0.0,71,0.00,,,0.00,0,Wunderground v.1.15,2013-01-17 05:28:00,
2013-01-16 21:38:00,38.9,30.6,30.32,South,188,0.0,0.0,72,0.00,,,0.00,0,Wunderground v.1.15,2013-01-17 05:38:00,
2013-01-16 21:48:00,38.8,30.9,30.32,South,188,0.0,0.0,73,0.00,,,0.00,0,Wunderground v.1.15,2013-01-17 05:48:00,
2013-01-16 21:58:00,38.8,30.9,30.32,South,188,0.0,0.0,73,0.00,,,0.00,0,Wunderground v.1.15,2013-01-17 05:58:00,
2013-01-16 22:08:00,38.8,31.2,30.32,South,188,0.0,0.0,74,0.00,,,0.00,0,Wunderground v.1.15,2013-01-17 06:08:00,
2013-01-16 22:18:00,38.8,30.9,30.32,South,188,0.0,0.0,73,0.00,,,0.00,0,Wunderground v.1.15,2013-01-17 06:18:00,
2013-01-16 22:28:00,38.2,30.6,30.32,SSE,165,2.0,3.0,74,0.00,,,0.00,0,Wunderground v.1.15,2013-01-17 06:28:00,
2013-01-16 22:38:00,37.7,30.5,30.33,SSE,165,2.0,2.0,75,0.00,,,0.00,0,Wunderground v.1.15,2013-01-17 06:38:00,
2013-01-16 22:48:00,37.4,30.2,30.33,SSE,165,1.0,1.0,75,0.00,,,0.00,0,Wunderground v.1.15,2013-01-17 06:48:00,
2013-01-16 22:58:00,37.1,30.2,30.33,SSE,161,1.0,3.0,76,0.00,,,0.00,0,Wunderground v.1.15,2013-01-17 06:58:00,
2013-01-16 23:08:00,36.5,29.7,30.32,SSE,164,3.0,3.0,76,0.00,,,0.00,0,Wunderground v.1.15,2013-01-17 07:08:00,
2013-01-16 23:18:00,36.0,29.8,30.32,South,169,3.0,3.0,78,0.00,,,0.00,0,Wunderground v.1.15,2013-01-17 07:18:00,
2013-01-16 23:28:00,35.8,29.6,30.32,South,169,3.0,3.0,78,0.00,,,0.00,0,Wunderground v.1.15,2013-01-17 07:28:00,
2013-01-16 23:38:00,35.5,29.6,30.32,SSE,168,2.0,4.0,79,0.00,,,0.00,0,Wunderground v.1.15,2013-01-17 07:38:00,
2013-01-16 23:48:00,35.7,29.8,30.32,South,172,3.0,3.0,79,0.00,,,0.00,0,Wunderground v.1.15,2013-01-17 07:48:00,
2013-01-16 23:58:00,36.0,30.1,30.32,SSE,161,2.0,2.0,79,0.00,,,0.00,0,Wunderground v.1.15,2013-01-17 07:58:00,